Wind_Speed
31 32 32 32 33 34 35 35 35 35 35 35 35 35 35 36 36 37 38 38 38 37 38 38 38 39 40 40 41 40 40 39 39 40 41 41 41 43 44 45 46 48 49 50
32 32 32 33 33 34 35 36 36 37 36 37 36 36 36 36 36 37 38 38 38 39 39 39 39 40 40 41 41 41 40 40 40 41 42 43 43 43 45 46 47 48 50 50
33 34 34 34 35 35 36 36 37 37 37 38 39 38 37 36 36 36 37 38 39 39 40 40 40 41 41 41 41 42 41 42 42 41 42 43 43 43 44 46 48 49 50 51
34 34 35 35 36 36 36 36 37 37 38 38 39 41 39 37 37 37 37 37 38 39 40 40 41 41 41 41 41 42 42 42 42 42 42 42 43 44 44 46 47 48 49 50
35 35 36 36 35 36 37 37 38 38 39 39 39 41 40 39 38 37 37 37 38 38 39 40 40 40 40 41 41 41 42 41 42 43 42 42 43 44 44 45 45 46 48 49
35 36 36 36 36 36 37 38 38 39 40 41 39 40 41 39 38 37 37 37 38 38 38 38 39 39 40 41 41 41 41 41 42 42 42 43 43 44 44 45 45 46 47 48
35 36 36 36 36 36 36 36 38 39 40 41 39 40 40 38 37 37 37 38 38 38 38 38 38 39 39 40 41 41 41 42 42 43 43 44 44 44 44 45 45 46 46 47
36 35 35 36 35 35 35 35 36 38 40 40 39 39 38 37 37 37 38 38 38 38 38 38 38 38 39 39 40 40 41 42 42 43 43 44 44 44 44 45 46 46 46 47
36 35 34 34 34 34 34 34 35 36 38 39 39 39 38 36 37 37 37 37 37 37 37 37 37 38 38 39 40 40 41 42 42 42 43 44 45 45 45 45 45 46 46 46
35 35 33 33 34 33 34 33 32 32 34 37 38 37 36 35 35 35 35 35 36 36 36 36 37 37 37 38 39 40 41 41 42 43 44 44 45 45 45 46 46 46 45 47
33 34 33 33 33 32 32 31 32 33 34 35 36 36 35 34 34 34 34 34 34 34 34 34 35 36 37 37 38 40 41 42 43 43 44 45 45 45 46 46 46 46 46 46
32 33 33 32 32 32 32 32 32 32 34 35 35 35 34 34 34 34 34 35 35 34 33 34 34 35 36 37 38 38 39 40 42 43 44 45 45 46 46 46 45 45 45 45
32 32 33 32 32 32 32 32 32 33 33 34 34 34 33 32 33 34 34 34 34 33 33 33 33 34 35 36 37 38 38 39 40 40 41 42 43 43 44 44 44 44 44 44
31 32 31 31 32 32 32 32 32 32 32 33 32 32 32 33 33 33 33 33 33 32 32 32 33 34 34 35 36 37 38 38 39 39 40 41 41 41 41 42 42 43 43 43
31 32 31 31 31 32 31 30 29 30 31 32 31 30 30 32 33 33 32 32 31 31 31 31 32 33 33 34 35 36 37 38 38 39 39 40 40 40 40 41 40 40 40 40
31 32 31 30 30 30 29 29 29 29 30 31 31 30 30 31 31 31 31 30 30 31 31 32 33 34 34 35 35 36 37 37 37 38 39 40 40 39 39 39 38 38 38 38
29 30 31 31 30 30 30 29 29 28 29 29 30 30 29 29 29 29 29 29 29 29 31 32 33 33 35 35 36 36 36 36 37 37 37 38 38 37 37 37 37 37 36 36
28 28 29 29 28 29 29 29 29 29 29 28 28 28 28 29 28 28 29 29 29 29 29 30 31 32 34 35 36 36 36 36 36 36 37 37 36 36 35 36 36 36 35 35
27 27 28 28 28 28 28 28 27 28 27 27 26 26 27 28 28 28 29 29 28 29 29 30 31 31 31 33 34 34 35 35 36 35 35 35 35 34 34 34 35 35 35 35
26 27 28 28 28 28 28 27 26 26 26 26 26 25 26 26 27 27 28 28 29 29 30 30 31 31 31 32 33 34 34 35 35 34 34 34 34 34 34 34 34 35 34 35
26 26 27 27 28 28 27 26 26 25 26 26 26 25 26 26 26 26 26 27 28 29 30 30 31 31 31 32 32 32 33 33 33 33 32 33 33 33 34 34 34 35 35 36
26 26 26 27 27 27 26 25 25 25 26 27 27 27 27 27 27 26 26 26 27 28 28 28 29 30 31 31 31 30 31 30 30 30 31 31 32 33 34 34 35 35 36 37
24 25 26 26 26 27 26 25 26 26 26 26 27 27 27 27 27 27 26 26 26 27 27 27 27 27 28 29 29 28 28 28 27 28 28 29 31 32 33 33 34 35 36 37
25 25 25 24 24 25 25 26 26 26 26 26 26 26 27 27 27 27 26 27 27 26 26 26 26 26 25 26 26 26 25 24 24 25 26 27 29 30 31 32 34 35 36 37
25 24 24 24 23 24 25 26 27 26 26 26 27 27 27 26 26 26 25 26 26 26 26 26 26 25 25 25 25 24 24 24 24 24 25 26 27 28 30 31 32 33 34 36
25 25 24 24 24 24 24 25 26 26 26 26 27 27 27 27 27 26 25 25 25 25 25 25 25 24 24 24 24 24 23 23 23 24 25 25 26 27 28 28 29 30 32 32
Wind_Direction
286 283 282 281 281 280 280 279 278 277 276 274 273 272 272 271 269 268 267 266 266 267 268 268 267 266 263 262 263 262 262 261 260 259 259 258 256 254 253 253 251 250 250 249
286 284 284 283 282 281 281 280 280 278 277 275 273 272 272 272 271 269 267 266 266 267 267 268 268 267 265 263 262 261 261 260 260 260 259 257 257 256 255 253 252 251 251 251
286 286 284 283 282 281 281 281 281 280 278 276 275 272 272 272 271 270 269 268 267 267 267 268 268 267 266 263 262 261 260 261 260 259 258 258 257 257 256 255 253 253 252 251
286 285 283 282 282 282 282 281 280 280 279 278 276 275 272 272 271 270 270 269 268 268 268 268 268 266 264 264 262 262 262 261 261 260 259 257 256 256 256 255 255 254 254 254
288 285 283 283 283 282 281 281 280 279 279 278 278 277 274 273 271 270 269 269 269 269 269 269 268 266 264 263 262 262 262 261 261 260 260 258 257 257 256 256 256 256 255 254
289 287 285 284 283 282 282 282 281 280 280 279 280 279 276 274 273 271 270 269 269 270 269 270 269 266 264 262 262 262 262 261 261 261 260 260 260 259 258 257 257 258 256 255
291 289 288 286 285 283 283 284 285 284 282 282 282 280 278 277 275 273 271 271 270 270 270 270 269 267 265 264 263 262 262 262 261 261 262 262 261 260 259 259 258 258 257 256
294 291 290 288 287 286 285 285 285 286 286 284 283 280 279 279 277 275 273 271 271 271 271 270 269 268 266 265 264 263 263 263 263 262 262 262 262 261 260 259 258 259 258 257
296 293 292 290 288 286 285 285 286 286 286 285 284 282 280 279 278 277 274 273 272 271 271 270 270 269 267 266 265 265 264 264 264 263 263 262 262 262 261 259 258 258 257 256
297 296 294 292 290 288 286 286 288 287 288 288 286 284 283 281 280 277 276 275 273 272 271 270 269 269 268 267 266 266 266 266 265 264 264 263 262 261 260 259 258 257 256 256
299 297 297 295 293 290 288 286 285 285 285 286 287 285 285 284 282 280 277 275 273 272 271 270 268 268 268 268 267 267 267 266 266 266 265 264 263 262 260 260 259 258 257 256
300 300 299 298 296 292 287 285 284 286 287 285 285 284 284 283 281 279 278 275 273 271 270 269 268 268 268 269 268 268 268 268 267 267 266 264 263 262 261 259 259 258 256 255
301 301 302 302 299 294 289 286 284 285 285 285 286 283 283 282 280 279 277 275 273 271 269 269 269 270 270 270 269 268 269 269 268 267 266 265 264 263 261 259 258 257 256 255
299 298 299 299 298 296 292 289 287 288 287 286 286 284 281 281 281 281 278 275 272 270 270 270 269 270 271 271 270 270 270 270 269 268 267 266 264 263 261 258 257 257 256 255
297 298 298 297 297 295 293 291 290 290 289 289 288 286 283 281 280 280 279 275 272 271 271 270 270 271 272 273 273 272 271 271 270 268 266 265 264 263 261 258 257 257 256 255
299 299 298 297 297 295 293 293 293 293 291 291 289 285 282 283 283 282 280 277 274 272 271 271 272 272 273 274 274 273 273 271 269 268 267 264 263 262 260 257 256 255 254 253
304 303 301 300 298 296 295 295 294 295 294 293 291 287 284 284 285 284 283 279 277 277 276 275 274 274 274 275 275 274 272 271 269 268 267 265 263 262 259 255 254 254 253 252
304 304 304 304 301 297 298 296 295 294 295 296 293 291 287 286 285 285 285 283 281 280 280 279 278 277 276 275 275 274 273 272 270 268 267 265 262 259 257 255 253 252 252 252
305 304 305 305 302 298 299 301 300 296 295 295 294 291 290 290 289 288 286 285 284 283 282 282 280 279 278 278 278 277 274 273 271 267 265 263 260 257 256 255 253 252 252 251
305 304 303 303 302 301 301 301 301 298 296 296 295 293 293 293 293 291 289 287 286 286 286 284 283 283 282 282 281 280 278 275 272 267 263 261 259 255 254 254 253 253 253 252
304 303 303 303 301 300 301 301 300 298 298 298 296 296 297 297 296 294 291 289 288 288 287 286 285 285 285 284 282 282 280 278 273 267 262 259 257 256 254 253 252 253 253 253
307 306 306 305 304 302 302 300 299 299 298 299 298 296 298 299 298 297 294 292 291 291 290 289 288 288 287 285 283 282 279 276 271 266 262 259 257 256 255 253 252 254 253 254
307 306 305 305 304 302 300 299 299 299 300 302 303 300 299 299 299 298 295 293 293 293 293 293 292 291 288 285 284 283 280 274 268 264 262 260 257 256 255 254 254 254 253 254
305 304 304 304 304 302 301 300 298 299 301 302 304 305 304 302 301 300 298 295 294 295 295 295 294 293 289 287 286 283 280 272 266 262 262 261 259 257 256 256 257 255 255 255
304 304 305 304 302 299 301 301 300 300 301 302 304 305 307 306 304 303 300 298 297 296 296 295 295 295 291 288 286 285 280 273 266 264 263 262 261 258 256 257 257 258 257 255
305 305 304 303 302 302 303 303 301 300 300 303 304 305 307 308 307 303 301 301 299 298 296 296 296 295 293 290 287 285 282 275 268 265 264 264 262 260 259 259 259 259 259 256
Height
5703 5701 5698 5696 5694 5692 5689 5687 5685 5684 5682 5681 5680 5679 5678 5676 5675 5674 5673 5673 5673 5673 5671 5671 5670 5669 5669 5669 5668 5668 5668 5668 5669 5669 5669 5670 5671 5672 5674 5675 5677 5680 5682 5685
5695 5692 5690 5687 5684 5682 5679 5677 5676 5674 5672 5670 5669 5668 5667 5666 5665 5664 5663 5663 5662 5662 5661 5660 5659 5658 5658 5657 5657 5657 5657 5657 5657 5657 5658 5658 5659 5660 5662 5664 5665 5667 5669 5672
5685 5683 5680 5677 5675 5672 5670 5668 5666 5663 5661 5659 5658 5657 5656 5655 5654 5653 5652 5652 5651 5650 5649 5648 5647 5647 5646 5646 5646 5646 5646 5645 5645 5645 5646 5646 5647 5648 5650 5651 5653 5655 5656 5659
5674 5672 5670 5667 5664 5662 5660 5658 5655 5652 5650 5648 5647 5644 5645 5644 5643 5642 5641 5640 5640 5639 5638 5637 5636 5635 5635 5635 5634 5634 5634 5633 5633 5633 5633 5634 5635 5636 5637 5639 5640 5642 5644 5645
5664 5661 5658 5656 5654 5651 5649 5647 5644 5642 5639 5637 5635 5632 5633 5632 5631 5631 5630 5629 5628 5627 5626 5625 5624 5624 5623 5623 5623 5622 5622 5621 5621 5621 5621 5621 5622 5623 5624 5626 5628 5629 5631 5632
5654 5651 5647 5645 5643 5640 5638 5636 5633 5630 5627 5626 5625 5622 5620 5620 5620 5619 5619 5618 5617 5616 5615 5614 5613 5612 5611 5611 5611 5611 5610 5610 5609 5609 5608 5609 5609 5610 5612 5613 5615 5616 5618 5619
5644 5641 5637 5634 5631 5629 5627 5625 5621 5618 5615 5614 5613 5610 5609 5609 5608 5608 5607 5606 5605 5604 5603 5602 5601 5601 5600 5600 5599 5599 5599 5598 5598 5597 5597 5597 5597 5598 5599 5600 5601 5603 5605 5606
5633 5630 5627 5623 5620 5618 5616 5613 5611 5608 5605 5603 5601 5598 5599 5598 5596 5595 5595 5594 5593 5592 5592 5591 5590 5590 5589 5588 5588 5588 5587 5587 5586 5586 5585 5585 5585 5585 5586 5587 5589 5590 5591 5593
5621 5619 5616 5612 5609 5607 5604 5602 5600 5597 5593 5591 5589 5588 5588 5586 5585 5584 5583 5582 5582 5581 5580 5580 5579 5578 5578 5577 5576 5576 5576 5575 5574 5574 5573 5573 5572 5572 5573 5574 5575 5577 5578 5579
5611 5608 5606 5602 5599 5596 5594 5592 5590 5586 5583 5580 5579 5577 5576 5575 5574 5573 5572 5571 5571 5570 5569 5568 5568 5567 5566 5566 5565 5564 5563 5563 5562 5561 5561 5560 5560 5560 5560 5560 5562 5563 5564 5566
5602 5599 5596 5593 5590 5587 5585 5583 5579 5576 5574 5571 5568 5569 5566 5564 5563 5562 5561 5560 5560 5559 5558 5557 5557 5556 5555 5554 5553 5552 5551 5551 5550 5549 5548 5547 5547 5546 5546 5547 5548 5549 5551 5552
5593 5590 5586 5584 5581 5577 5575 5573 5570 5568 5565 5561 5559 5561 5556 5554 5552 5551 5550 5549 5549 5548 5548 5547 5546 5545 5544 5543 5542 5541 5539 5538 5537 5536 5535 5534 5533 5533 5533 5533 5534 5535 5537 5538
5584 5581 5577 5574 5573 5569 5565 5563 5560 5558 5555 5552 5550 5552 5547 5544 5542 5541 5539 5538 5538 5537 5537 5536 5535 5534 5533 5532 5531 5529 5528 5526 5525 5523 5522 5521 5520 5520 5520 5520 5521 5522 5524 5525
5575 5572 5570 5567 5562 5558 5556 5554 5551 5548 5545 5543 5542 5540 5538 5535 5532 5531 5529 5528 5527 5526 5526 5525 5524 5523 5522 5521 5519 5517 5516 5514 5513 5512 5510 5509 5508 5508 5507 5508 5509 5510 5511 5513
5566 5564 5560 5557 5554 5550 5547 5545 5543 5540 5537 5534 5533 5530 5528 5524 5523 5521 5519 5517 5516 5516 5515 5515 5514 5513 5511 5510 5508 5506 5505 5503 5501 5500 5499 5497 5496 5496 5496 5497 5498 5499 5500 5501
5557 5555 5552 5550 5546 5542 5539 5537 5534 5532 5529 5526 5523 5522 5518 5515 5513 5511 5510 5508 5507 5506 5505 5504 5503 5502 5500 5499 5497 5495 5493 5491 5490 5488 5487 5486 5485 5485 5485 5486 5487 5488 5489 5491
5549 5546 5543 5540 5537 5534 5532 5529 5526 5524 5520 5517 5514 5513 5509 5507 5505 5503 5501 5499 5498 5497 5495 5494 5492 5491 5489 5487 5485 5483 5482 5480 5478 5477 5475 5474 5474 5474 5474 5475 5476 5478 5480 5481
5542 5538 5534 5531 5529 5526 5526 5521 5518 5515 5512 5509 5506 5503 5501 5498 5496 5494 5492 5490 5488 5487 5486 5484 5482 5481 5478 5476 5474 5472 5470 5469 5467 5465 5464 5464 5464 5464 5464 5465 5467 5469 5471 5472
5534 5530 5527 5523 5520 5518 5516 5513 5509 5506 5504 5501 5498 5495 5492 5490 5488 5486 5483 5481 5479 5477 5476 5474 5472 5470 5468 5465 5463 5461 5459 5457 5456 5454 5454 5453 5453 5454 5455 5456 5458 5460 5462 5464
5527 5523 5520 5515 5512 5509 5509 5505 5501 5499 5496 5493 5490 5487 5484 5482 5480 5478 5475 5472 5470 5468 5466 5464 5462 5460 5457 5455 5452 5450 5448 5446 5445 5444 5443 5443 5444 5445 5446 5448 5449 5451 5452 5454
5519 5516 5512 5508 5504 5501 5500 5497 5494 5493 5490 5485 5482 5479 5477 5474 5471 5469 5466 5464 5461 5459 5457 5454 5452 5450 5447 5444 5442 5440 5438 5436 5434 5434 5433 5434 5434 5436 5437 5439 5440 5441 5443 5445
5511 5508 5504 5500 5497 5496 5492 5489 5487 5484 5481 5477 5474 5472 5469 5466 5463 5460 5457 5455 5452 5450 5447 5445 5442 5440 5437 5434 5432 5429 5427 5426 5425 5424 5424 5424 5425 5426 5428 5429 5430 5432 5433 5435
5505 5501 5497 5494 5492 5488 5484 5481 5479 5476 5473 5470 5467 5464 5461 5458 5455 5452 5450 5447 5444 5441 5439 5436 5433 5430 5428 5425 5422 5420 5418 5417 5416 5415 5415 5415 5416 5417 5418 5420 5421 5422 5423 5425
5498 5494 5490 5487 5484 5481 5477 5474 5471 5468 5465 5462 5459 5456 5453 5451 5447 5444 5441 5439 5436 5433 5430 5427 5424 5422 5419 5416 5414 5412 5410 5408 5407 5407 5407 5407 5408 5408 5409 5410 5412 5413 5414 5415
5490 5487 5484 5481 5478 5474 5471 5467 5464 5461 5458 5455 5452 5449 5446 5443 5440 5437 5434 5431 5428 5425 5422 5419 5416 5414 5411 5408 5406 5404 5402 5400 5399 5399 5399 5399 5400 5400 5401 5401 5402 5403 5404 5405
5484 5481 5477 5474 5471 5468 5465 5461 5458 5455 5451 5448 5445 5442 5439 5435 5432 5429 5426 5423 5420 5417 5414 5411 5408 5405 5403 5400 5398 5396 5394 5393 5392 5392 5391 5391 5392 5392 5392 5393 5393 5393 5394 5395